[[{"header":{"parameterUnit":"m.s-1","parameterCategory":1,"la1":30.2991,"la2":30.254,"lo1":-89.0895,"lo2":-89.0444,"dy":0.0017,"dx":0.0017,"nx":28,"ny":28,"refTime":"2025-11-21T09:00:00:Z","depth":0,"parameterNumber":2,"parameterNumberName":"U-component_of_WINDS"},"data":[0,0,0,0,0,0,0,0,0,0,0,0,0,0,0,0,0,0,0,0,0,0,0,0,0,0,0,0,0,0,0,0,0,0,0,0,0,0,0,0,0,0,0,0,0,0,0,0,0,0,0,0,0,0,0,0,0,0,1.609,1.6091,0,1.6161,1.6162,1.6162,1.6156,1.6155,1.6154,1.6153,1.6228,1.6231,1.6234,0,0,0,0,0,0,0,0,0,0,0,0,0,1.5955,1.5957,1.609,1.6091,1.6092,1.6161,1.6162,1.6163,1.6157,1.6155,1.6154,1.6153,1.6227,1.6231,1.6234,0,0,0,0,0,0,0,0,0,0,0,0,0,1.6018,1.5958,1.609,1.6097,1.6098,1.6161,1.6162,1.6163,1.6157,1.6155,1.6154,1.6152,1.6226,1.6231,1.6235,1.6295,0,0,1.6249,1.6251,0,0,0,0,0,0,0,0,1.6015,1.6023,1.6095,1.6097,1.6098,1.6148,1.6141,1.6207,1.6157,1.6135,1.6153,1.6151,1.6203,1.6209,1.6226,1.6299,1.6302,1.6249,1.6252,1.6254,1.6255,0,0,0,0,0,0,0,1.601,1.602,1.6118,1.6096,1.6098,1.6098,1.6106,1.6154,1.6177,1.6137,1.6136,1.6145,1.6204,1.6222,1.6228,1.6303,1.6249,1.6253,1.6256,1.6258,1.6433,1.6434,0,0,0,0,0,0,1.6004,1.6017,1.6116,1.612,1.6052,1.6102,1.611,1.6134,1.6177,1.6182,1.6146,1.6144,1.6215,1.6223,1.6231,1.6306,1.6254,1.6258,1.6261,1.6431,1.6433,1.6435,0,0,0,0,0,0,1.6001,1.6013,1.6113,1.6068,1.6081,1.6106,1.6133,1.6136,1.6154,1.6184,1.6188,1.616,1.6214,1.6224,1.628,1.6309,1.626,1.6264,1.6428,1.6431,1.6434,1.6457,0,0,0,0,0,0,1.5997,1.6012,1.6033,1.6069,1.6084,1.616,1.6134,1.6139,1.6162,1.616,1.6198,1.6203,1.6214,1.6273,1.6284,1.6314,1.6268,1.6426,1.643,1.6433,1.6454,1.646,1.6466,0,0,0,0,0,1.5992,1.6037,1.6034,1.6047,1.6111,1.6161,1.617,1.618,1.6164,1.6187,1.6207,1.6202,1.6304,1.6279,1.6291,1.6323,1.6424,1.6429,1.6433,1.6451,1.6459,1.6466,0,0,0,0,0,0,1.6004,1.6041,1.6039,1.6097,1.6126,1.616,1.6189,1.6188,1.6223,1.622,1.6233,1.6241,1.6298,1.6316,1.6288,1.6386,1.6362,1.6369,1.6371,1.6379,1.6385,1.638,1.6271,0,0,0,0,0,1.6013,1.605,1.6081,1.6129,1.6143,1.6164,1.6186,1.6192,1.6223,1.6236,1.6259,1.629,1.633,1.6356,1.6393,1.6456,1.6466,1.6485,1.6491,1.6495,1.6502,1.6539,1.6549,1.6449,1.6449,1.6449,0,0,1.6033,1.6058,1.608,1.6132,1.6155,1.6194,1.6174,1.6216,1.6246,1.6242,1.6296,1.6315,1.6351,1.6412,1.6439,1.6428,1.6531,1.6501,1.6505,1.6508,1.6545,1.6554,1.6563,1.6452,1.6452,1.6451,0,0,1.6089,1.6111,1.6154,1.6178,1.6214,1.6228,1.6238,1.6274,1.6286,1.634,1.634,1.6376,1.6443,1.6469,1.6492,1.6561,1.6559,1.6573,1.6605,1.6642,1.665,1.6657,1.6684,1.6693,1.6579,1.6579,1.6579,0,1.6109,1.6167,1.6177,1.6219,1.6243,1.6242,1.6288,1.6311,1.6357,1.6375,1.6362,1.6448,1.6472,1.654,1.6557,1.6574,1.6589,1.6569,1.6648,1.6655,1.6662,1.6687,1.6697,1.6581,1.6581,1.6581,1.6581,0,1.6191,1.6231,1.6262,1.6307,1.6335,1.6379,1.6397,1.6424,1.6428,1.6444,1.6502,1.6531,1.6576,1.6592,1.6597,1.6662,1.6655,1.6644,1.6621,1.6672,1.6697,1.6707,1.6583,1.6583,1.6582,1.6582,0,0,1.6255,1.6307,1.6318,1.634,1.6381,1.6413,1.6458,1.6501,1.6526,1.6558,1.6598,1.6656,1.6648,1.6673,1.6681,1.6713,1.677,1.67,1.6701,1.6713,1.6846,1.6855,1.6866,1.6768,1.677,1.6772,1.6844,0,1.6316,1.6395,1.6407,1.6477,1.6516,1.6517,1.6556,1.6587,1.6604,1.6641,1.666,1.6702,1.6686,1.6702,1.6734,1.6756,1.6797,1.6751,1.6807,1.6809,1.6799,1.6878,1.6886,1.6953,1.6853,1.6855,1.6856,0,1.6397,1.6433,1.6507,1.6545,1.6562,1.6597,1.664,1.6675,1.671,1.6721,1.6751,1.6755,1.6804,1.6779,1.6849,1.6817,1.6841,1.6856,1.6859,1.6865,1.6836,1.6888,1.6974,1.6985,1.6871,1.687,1.6869,0,1.6439,1.6506,1.6559,1.6578,1.6623,1.6648,1.6669,1.6703,1.6729,1.6767,1.6785,1.6828,1.6852,1.6886,1.6903,1.6883,1.6973,1.6948,1.6984,1.6984,1.7003,1.7002,1.7096,1.7017,1.7017,1.7017,1.7017,0,1.6507,1.6553,1.6579,1.6612,1.6664,1.6679,1.6731,1.675,1.6781,1.682,1.6823,1.686,1.688,1.692,1.6934,1.6991,1.7001,1.7013,1.7016,1.7013,1.7012,1.7029,1.7026,1.702,1.7019,1.7018,1.7018,0,1.6562,1.6581,1.664,1.6679,1.669,1.6727,1.6761,1.6794,1.6812,1.6861,1.6873,1.6901,1.6949,1.6969,1.7028,1.7038,1.7104,1.7103,1.7091,1.7093,1.7129,1.7126,1.7238,1.7254,1.7163,1.7164,1.7165,0,1.6604,1.664,1.6683,1.6709,1.673,1.6771,1.6799,1.6815,1.6844,1.6889,1.6918,1.6965,1.7004,1.7081,1.7108,1.7153,1.7155,1.7191,1.7162,1.7158,1.7158,1.7156,1.7161,1.7197,1.7198,1.7198,1.7199,0,1.6678,1.6687,1.6725,1.6769,1.6801,1.6836,1.687,1.6892,1.6914,1.6947,1.6995,1.7026,1.7087,1.7135,1.7183,1.7205,1.7207,1.7208,1.7219,1.7217,1.721,1.7216,1.7107,1.7205,1.7205,1.7204,1.7204,1.7204,1.6729,1.6762,1.6798,1.6842,1.687,1.6902,1.6936,1.6959,1.6999,1.705,1.7058,1.711,1.7148,1.7213,1.7238,1.7281,1.7272,1.7287,1.7292,1.7296,1.7299,1.7202,1.7289,1.7289,1.7289,1.7289,1.7289,0,1.6805,1.6829,1.6869,1.6917,1.6953,1.6951,1.6989,1.702,1.7066,1.7101,1.7139,1.7197,1.7245,1.7276,1.7325,1.7353,1.7356,1.7366,1.7364,1.737,1.7303,1.7289,1.7363,1.7363,1.7363,1.7363,1.7363,1.7363,1.6848,1.6904,1.6917,1.6988,1.7012,1.7063,1.7086,1.7117,1.7145,1.7209,1.7249,1.7269,1.7303,1.7355,1.74,1.7408,1.7426,1.7437,1.7445,1.7382,1.7375,1.7367,1.7354,1.7441,1.7441,1.7509,1.751,1.751]},{"header":{"parameterUnit":"m.s-1","parameterCategory":1,"la1":30.2991,"la2":30.254,"lo1":-89.0895,"lo2":-89.0444,"dy":0.0017,"dx":0.0017,"nx":28,"ny":28,"refTime":"2025-11-21T09:00:00:Z","depth":0,"parameterNumber":3,"parameterNumberName":"V-component_of_WINDS"},"data":[0,0,0,0,0,0,0,0,0,0,0,0,0,0,0,0,0,0,0,0,0,0,0,0,0,0,0,0,0,0,0,0,0,0,0,0,0,0,0,0,0,0,0,0,0,0,0,0,0,0,0,0,0,0,0,0,0,0,-0.0544,-0.0544,0,-0.0545,-0.0545,-0.0545,-0.0556,-0.0556,-0.0556,-0.0557,-0.0558,-0.0558,-0.0557,0,0,0,0,0,0,0,0,0,0,0,0,0,-0.055,-0.055,-0.0544,-0.0544,-0.0544,-0.0545,-0.0545,-0.0545,-0.0556,-0.0556,-0.0556,-0.0557,-0.0558,-0.0558,-0.0557,0,0,0,0,0,0,0,0,0,0,0,0,0,-0.0549,-0.055,-0.0544,-0.0549,-0.055,-0.0545,-0.0545,-0.0545,-0.0556,-0.0556,-0.0556,-0.0557,-0.0558,-0.0558,-0.0557,-0.0548,0,0,-0.0556,-0.0556,0,0,0,0,0,0,0,0,-0.0549,-0.0549,-0.0548,-0.0549,-0.0549,-0.0551,-0.0548,-0.0546,-0.0556,-0.0553,-0.0557,-0.0557,-0.0555,-0.0555,-0.0555,-0.0548,-0.0548,-0.0556,-0.0556,-0.0556,-0.0556,0,0,0,0,0,0,0,-0.0549,-0.0549,-0.0544,-0.0548,-0.0549,-0.0552,-0.0552,-0.0548,-0.0552,-0.0554,-0.0554,-0.0554,-0.0555,-0.0555,-0.0555,-0.0548,-0.0556,-0.0556,-0.0556,-0.0556,-0.0537,-0.0536,0,0,0,0,0,0,-0.0549,-0.0549,-0.0544,-0.0544,-0.055,-0.0551,-0.0552,-0.055,-0.0552,-0.0553,-0.0554,-0.0555,-0.0555,-0.0555,-0.0555,-0.0545,-0.0556,-0.0556,-0.0556,-0.0537,-0.0536,-0.0536,0,0,0,0,0,0,-0.0549,-0.0548,-0.0544,-0.0547,-0.0547,-0.0551,-0.0549,-0.055,-0.0549,-0.0553,-0.0553,-0.0553,-0.0555,-0.0555,-0.055,-0.0545,-0.0556,-0.0555,-0.0537,-0.0537,-0.0536,-0.0525,0,0,0,0,0,0,-0.0549,-0.0548,-0.0544,-0.0547,-0.0547,-0.0539,-0.0548,-0.055,-0.0549,-0.055,-0.0551,-0.0552,-0.0556,-0.0551,-0.055,-0.0545,-0.0555,-0.0538,-0.0537,-0.0536,-0.0526,-0.0525,-0.0523,0,0,0,0,0,-0.0549,-0.054,-0.0544,-0.0543,-0.0542,-0.0539,-0.0539,-0.0543,-0.0548,-0.0545,-0.0547,-0.0552,-0.0546,-0.055,-0.0549,-0.0544,-0.0538,-0.0537,-0.0537,-0.0527,-0.0525,-0.0523,0,0,0,0,0,0,-0.0536,-0.0541,-0.0545,-0.0536,-0.0537,-0.0541,-0.0536,-0.0541,-0.054,-0.0541,-0.0547,-0.0547,-0.0541,-0.0542,-0.0546,-0.0537,-0.0543,-0.0542,-0.0536,-0.0534,-0.0533,-0.0532,-0.0555,0,0,0,0,0,-0.0532,-0.053,-0.0534,-0.0526,-0.0527,-0.0531,-0.053,-0.0534,-0.0535,-0.0535,-0.0537,-0.0538,-0.0537,-0.0536,-0.0534,-0.0527,-0.0528,-0.0523,-0.0522,-0.0521,-0.052,-0.0518,-0.0516,-0.0534,-0.0534,-0.0534,0,0,-0.0524,-0.0527,-0.0524,-0.0524,-0.0525,-0.0522,-0.0531,-0.0528,-0.0526,-0.0535,-0.053,-0.0532,-0.0534,-0.0528,-0.0525,-0.0529,-0.0516,-0.052,-0.0519,-0.0518,-0.0517,-0.0515,-0.0514,-0.0533,-0.0533,-0.0533,0,0,-0.0509,-0.051,-0.0504,-0.0506,-0.0508,-0.0511,-0.051,-0.0513,-0.0515,-0.0511,-0.0518,-0.0517,-0.0514,-0.0515,-0.0515,-0.0503,-0.0508,-0.0503,-0.0495,-0.0493,-0.0491,-0.049,-0.0487,-0.0486,-0.0502,-0.0502,-0.0502,0,-0.0498,-0.0495,-0.0501,-0.0498,-0.0498,-0.0506,-0.0502,-0.0503,-0.0504,-0.0504,-0.0508,-0.0506,-0.0508,-0.0503,-0.0501,-0.05,-0.05,-0.0502,-0.0491,-0.049,-0.0489,-0.0486,-0.0485,-0.0501,-0.0501,-0.0501,-0.0501,0,-0.0483,-0.048,-0.0476,-0.0478,-0.0478,-0.0474,-0.048,-0.0479,-0.0484,-0.0487,-0.0484,-0.0487,-0.0487,-0.0486,-0.049,-0.0483,-0.0485,-0.049,-0.0496,-0.0487,-0.0484,-0.0483,-0.05,-0.0501,-0.0501,-0.0501,0,0,-0.0457,-0.0464,-0.0462,-0.0464,-0.0469,-0.0467,-0.0464,-0.0465,-0.0465,-0.0466,-0.0465,-0.0464,-0.0469,-0.0469,-0.0474,-0.0472,-0.0464,-0.0477,-0.0477,-0.0475,-0.0458,-0.0455,-0.0453,-0.0468,-0.0467,-0.0467,-0.0458,0,-0.0442,-0.0438,-0.0444,-0.0438,-0.0437,-0.0447,-0.0445,-0.0447,-0.0451,-0.0451,-0.0456,-0.0455,-0.0461,-0.0462,-0.0461,-0.0465,-0.0461,-0.0466,-0.0467,-0.0467,-0.0466,-0.0451,-0.0447,-0.0438,-0.0457,-0.0457,-0.0457,0,-0.0424,-0.0426,-0.042,-0.0427,-0.0427,-0.0424,-0.0427,-0.0427,-0.0431,-0.0434,-0.0436,-0.0442,-0.0441,-0.0448,-0.0447,-0.045,-0.0451,-0.0454,-0.0454,-0.0454,-0.0461,-0.0451,-0.0435,-0.0434,-0.0455,-0.0455,-0.0455,0,-0.0407,-0.0408,-0.0405,-0.0407,-0.0414,-0.0412,-0.0415,-0.042,-0.0421,-0.0423,-0.0424,-0.0427,-0.0428,-0.043,-0.0437,-0.0441,-0.0436,-0.0443,-0.0439,-0.0439,-0.0437,-0.0437,-0.0421,-0.0437,-0.0437,-0.0437,-0.0437,0,-0.039,-0.0387,-0.0398,-0.0396,-0.0393,-0.0401,-0.0398,-0.0402,-0.0407,-0.0406,-0.0415,-0.0415,-0.0424,-0.0425,-0.043,-0.043,-0.043,-0.0433,-0.0435,-0.0432,-0.0432,-0.0433,-0.0434,-0.0437,-0.0437,-0.0437,-0.0437,0,-0.037,-0.0377,-0.0375,-0.0383,-0.0385,-0.0382,-0.039,-0.0389,-0.0394,-0.0394,-0.0395,-0.0403,-0.0405,-0.0413,-0.0416,-0.042,-0.0418,-0.042,-0.0416,-0.0417,-0.0413,-0.0414,-0.0398,-0.0396,-0.0413,-0.0413,-0.0413,0,-0.0359,-0.0356,-0.0365,-0.0366,-0.0368,-0.0369,-0.0371,-0.038,-0.0381,-0.0387,-0.0386,-0.0389,-0.0392,-0.0395,-0.0401,-0.0405,-0.0408,-0.0402,-0.0408,-0.0407,-0.0409,-0.0409,-0.0409,-0.0401,-0.04,-0.04,-0.04,0,-0.0338,-0.0343,-0.0345,-0.0348,-0.035,-0.0353,-0.0357,-0.0358,-0.0368,-0.0369,-0.0372,-0.0374,-0.0379,-0.0382,-0.0387,-0.0391,-0.0398,-0.0398,-0.0398,-0.0395,-0.0393,-0.0395,-0.0413,-0.0398,-0.0399,-0.0399,-0.0399,-0.0399,-0.0323,-0.0322,-0.0328,-0.033,-0.0335,-0.0339,-0.0339,-0.0345,-0.0347,-0.0352,-0.0358,-0.036,-0.0366,-0.0374,-0.0378,-0.038,-0.0384,-0.0382,-0.0382,-0.0382,-0.0381,-0.0393,-0.0381,-0.0381,-0.0381,-0.0381,-0.0381,0,-0.0303,-0.0308,-0.0311,-0.0316,-0.0319,-0.0326,-0.0331,-0.0332,-0.0335,-0.034,-0.0343,-0.0347,-0.0351,-0.0359,-0.0364,-0.0365,-0.0368,-0.0366,-0.0366,-0.0367,-0.0377,-0.0378,-0.0363,-0.0363,-0.0363,-0.0363,-0.0363,-0.0363,-0.0294,-0.0293,-0.0298,-0.03,-0.0306,-0.0308,-0.0311,-0.0315,-0.032,-0.0324,-0.0328,-0.0333,-0.034,-0.0346,-0.035,-0.0353,-0.0354,-0.0351,-0.0354,-0.0364,-0.0366,-0.0367,-0.0368,-0.0351,-0.0351,-0.0344,-0.0344,-0.0344]}]]